EW4074 Weather Reports


Display with metric or nautical units.
time (UTC)temp
F
wind
direction
speed
MPH
gust
MPH
rain 1hr
in
rain 24hr
in
rain mn
in
humidity
%
barometer
mb
20260831021523 71 206 0.0 0.0 0.00 0.14 0.14 98 1048.1
20260831021017 71 206 0.0 0.0 0.00 0.14 0.14 97 1048.1
20260831020511 71 206 0.0 0.0 0.00 0.14 0.14 97 1048.1
20260831020004 71 206 0.0 0.0 0.00 0.14 0.14 97 1048.1
20260831015458 71 206 0.0 0.0 0.00 0.14 0.14 97 1048.1
20260831014949 71 206 0.0 0.0 0.00 0.14 0.14 97 1048.1
20260831014447 71 206 0.0 0.0 0.00 0.14 0.14 97 1048.1
20260831013940 71 206 0.0 0.0 0.00 0.14 0.14 97 1048.1
20260831013434 71 206 0.0 0.0 0.00 0.14 0.14 96 1048.1
20260831012928 71 206 0.0 0.0 0.00 0.14 0.14 96 1048.1
20260831012422 71 206 0.0 0.0 0.00 0.14 0.14 96 1048.1
20260831012139 71 206 0.0 0.0 0.00 0.14 0.14 97 1048.1
20260831011407 71 206 0.0 0.0 0.00 0.14 0.14 96 1048.1
20260831010905 71 206 0.0 0.0 0.00 0.14 0.14 96 1048.1
20260831010359 71 206 0.0 0.0 0.00 0.14 0.14 96 1047.9
20260831005853 71 206 0.0 0.0 0.00 0.14 0.14 96 1047.9
20260831005347 72 206 0.0 0.0 0.00 0.14 0.14 96 1047.6
20260831004840 71 155 0.0 0.0 0.00 0.14 0.14 96 1047.6
20260831004334 71 155 0.0 0.0 0.00 0.14 0.14 95 1047.6
20260831004053 72 155 0.0 0.0 0.00 0.14 0.14 95 1047.4
20260831003321 72 155 0.0 0.0 0.00 0.14 0.14 95 1047.4
20260831002813 72 155 0.0 0.0 0.00 0.14 0.14 95 1047.4
20260831002309 72 155 0.0 0.0 0.00 0.14 0.14 94 1047.1
20260831001807 73 155 0.0 0.0 0.00 0.14 0.14 94 1047.1
20260831001306 73 155 0.0 0.0 0.00 0.14 0.14 94 1047.1
20260831000807 73 155 0.0 0.0 0.00 0.14 0.14 94 1047.1
20260831000306 74 155 0.0 0.0 0.00 0.14 0.14 93 1047.1
20260830235806 74 155 0.0 0.0 0.00 0.14 0.14 93 1047.1
20260830235307 74 155 0.0 0.0 0.00 0.14 0.14 93 1047.1
20260830235024 75 155 0.0 0.0 0.00 0.14 0.14 92 1047.1
20260830234307 75 155 0.0 0.0 0.00 0.14 0.14 92 1047.1
20260830234021 76 155 0.0 0.0 0.00 0.14 0.14 91 1047.1
20260830233250 76 155 0.0 0.0 0.00 0.14 0.14 90 1047.1
20260830232751 77 155 0.0 0.0 0.00 0.14 0.14 90 1047.1
20260830232250 78 155 0.0 0.0 0.00 0.14 0.14 89 1047.1
20260830231751 79 155 0.0 1.0 0.00 0.14 0.14 87 1047.1
20260830231250 80 155 0.0 1.0 0.00 0.14 0.14 87 1047.1
20260830230751 80 155 0.0 1.0 0.00 0.14 0.14 85 1047.1
20260830230510 81 155 0.0 1.0 0.00 0.14 0.14 85 1047.1
20260830225750 82 155 0.0 1.0 0.00 0.14 0.14 85 1047.1
20260830225251 82 155 0.0 1.0 0.00 0.14 0.14 83 1047.1
20260830224744 82 34 0.0 0.0 0.00 0.14 0.14 85 1047.1
20260830224713 82 34 0.0 0.0 0.00 0.14 0.14 85 1047.1
20260830223720 82 34 0.0 0.0 0.00 0.14 0.14 85 1047.1
20260830223212 82 34 0.0 1.0 0.00 0.14 0.14 84 1047.1
20260830222706 82 34 0.0 1.0 0.00 0.14 0.14 84 1047.1
20260830222201 82 20 0.0 1.0 0.00 0.14 0.14 85 1047.0
20260830221655 82 20 0.0 1.0 0.00 0.14 0.14 85 1047.0
20260830221643 82 21 0.0 3.0 0.00 0.14 0.14 85 1047.0
20260830220642 82 117 0.0 3.0 0.01 0.14 0.14 85 1047.0
20260830220136 82 132 0.0 3.0 0.03 0.14 0.14 85 1047.0
20260830215630 82 194 0.0 3.0 0.06 0.14 0.14 85 1047.0
20260830215120 82 107 1.0 4.0 0.06 0.14 0.14 85 1046.9
20260830214618 81 151 2.0 8.0 0.06 0.14 0.14 86 1046.9
20260830214112 81 195 2.0 8.0 0.06 0.14 0.14 87 1046.9
20260830213606 81 157 1.0 4.0 0.06 0.14 0.14 89 1046.9
20260830213101 80 190 0.0 1.0 0.06 0.14 0.14 92 1046.9
20260830212554 79 268 0.0 0.0 0.06 0.14 0.14 93 1046.9
20260830212047 78 268 0.0 0.0 0.06 0.14 0.14 92 1047.0
20260830211539 78 268 0.0 0.0 0.06 0.14 0.14 91 1047.0
20260830211036 79 267 0.0 0.0 0.06 0.14 0.14 89 1047.0
20260830210752 80 271 0.0 2.0 0.05 0.13 0.13 88 1047.1
20260830210024 81 264 0.0 2.0 0.03 0.11 0.11 86 1047.1
20260830205519 82 273 0.0 0.0 0.00 0.08 0.08 83 1047.1
20260830205007 82 328 0.0 0.0 0.00 0.08 0.08 82 1046.6
20260830204507 83 17 0.0 0.0 0.00 0.08 0.08 80 1046.6
20260830204000 84 17 0.0 3.0 0.00 0.08 0.08 79 1046.6
20260830203455 84 93 0.0 3.0 0.00 0.08 0.08 79 1046.9
20260830202948 85 213 1.0 6.0 0.00 0.08 0.08 79 1046.9
20260830202705 85 123 2.0 6.0 0.00 0.08 0.08 77 1046.9
20260830201935 86 130 2.0 6.0 0.00 0.08 0.08 77 1046.9
20260830201425 86 209 1.0 6.0 0.00 0.08 0.08 77 1046.9
20260830200921 85 68 1.0 6.0 0.00 0.08 0.08 79 1046.9
20260830200452 85 103 2.0 7.0 0.00 0.08 0.08 79 1047.1
20260830195407 84 235 1.0 5.0 0.00 0.08 0.08 82 1047.1
20260830195125 84 296 1.0 5.0 0.00 0.08 0.08 81 1047.1
20260830194854 85 234 1.0 7.0 0.00 0.08 0.08 80 1047.1
20260830193908 86 285 1.0 7.0 0.00 0.08 0.08 80 1047.1
20260830193407 86 45 2.0 8.0 0.00 0.08 0.08 78 1047.2
20260830192908 87 29 2.0 11.0 0.00 0.08 0.08 76 1047.2
20260830192408 87 227 2.0 11.0 0.00 0.08 0.08 75 1047.2
20260830191908 88 252 1.0 3.0 0.00 0.08 0.08 69 1047.2
20260830191629 87 236 1.0 4.0 0.00 0.08 0.08 72 1047.2
20260830190849 85 199 1.0 4.0 0.00 0.08 0.08 74 1047.6
20260830190338 84 134 0.0 0.0 0.00 0.08 0.08 74 1047.6
20260830185826 83 227 0.0 0.0 0.00 0.08 0.08 83 1047.6
20260830185314 83 227 0.0 0.0 0.00 0.08 0.08 82 1048.0
20260830184807 83 227 0.0 0.0 0.00 0.08 0.08 84 1048.0
20260830184307 83 227 0.0 0.0 0.00 0.08 0.08 83 1048.0
20260830184026 83 227 0.0 0.0 0.00 0.08 0.08 80 1048.1
20260830183307 85 227 0.0 0.0 0.00 0.08 0.08 77 1048.1
20260830182808 85 227 0.0 1.0 0.00 0.08 0.08 75 1048.1
20260830182307 85 248 1.0 4.0 0.00 0.08 0.08 69 1048.1
20260830181805 85 205 1.0 5.0 0.00 0.08 0.08 71 1048.1
20260830181537 85 143 2.0 5.0 0.00 0.08 0.08 71 1048.1
20260830180805 85 157 2.0 6.0 0.00 0.08 0.08 73 1048.1
20260830180304 85 211 2.0 6.0 0.00 0.08 0.08 73 1048.1
20260830175754 85 232 2.0 5.0 0.00 0.08 0.08 76 1048.1
20260830175251 85 146 1.0 4.0 0.00 0.08 0.08 78 1048.5
20260830174746 85 74 1.0 4.0 0.00 0.08 0.08 76 1048.5
20260830174239 84 84 1.0 3.0 0.06 0.08 0.08 81 1048.5
20260830173956 83 94 0.0 3.0 0.08 0.08 0.08 87 1048.7
20260830173222 81 150 0.0 2.0 0.08 0.08 0.08 87 1048.7
20260830172721 80 157 1.0 4.0 0.08 0.08 0.08 89 1048.7
20260830172210 79 223 1.0 4.0 0.08 0.08 0.08 91 1048.8
20260830171709 78 151 1.0 4.0 0.08 0.08 0.08 92 1048.8
20260830171203 78 71 0.0 0.0 0.08 0.08 0.08 92 1048.8
20260830170657 78 71 0.0 0.0 0.08 0.08 0.08 92 1049.2
20260830170151 78 71 0.0 0.0 0.08 0.08 0.08 91 1049.2
20260830165641 78 22 0.0 1.0 0.08 0.08 0.08 89 1049.2
20260830165139 79 21 1.0 2.0 0.08 0.08 0.08 87 1049.3
20260830164633 81 16 1.0 7.0 0.07 0.07 0.08 84 1049.3
20260830164127 84 349 1.0 7.0 0.01 0.01 0.02 75 1049.3
20260830163621 85 229 2.0 4.0 0.00 0.00 0.00 73 1049.3
20260830163116 85 180 2.0 6.0 0.00 0.00 0.00 71 1049.3
20260830162838 86 226 3.0 7.0 0.00 0.00 0.00 71 1049.3
20260830162059 87 260 3.0 7.0 0.00 0.00 0.00 69 1049.4
20260830161557 86 158 2.0 7.0 0.00 0.00 0.00 72 1049.4
20260830161051 86 123 3.0 8.0 0.00 0.00 0.00 71 1049.4
20260830160545 86 160 3.0 8.0 0.00 0.00 0.00 73 1049.6
20260830160039 86 243 3.0 8.0 0.00 0.00 0.00 73 1049.6
20260830155533 85 257 3.0 8.0 0.00 0.00 0.00 74 1049.6
20260830155027 85 113 2.0 8.0 0.00 0.00 0.00 74 1049.8
20260830154517 84 200 2.0 8.0 0.00 0.00 0.00 75 1049.8
20260830154016 83 228 4.0 10.0 0.00 0.00 0.00 76 1049.8
20260830153504 83 178 4.0 10.0 0.00 0.00 0.00 76 1049.8
20260830153005 83 212 3.0 9.0 0.00 0.00 0.00 76 1049.8
20260830152457 82 182 3.0 6.0 0.00 0.00 0.00 77 1049.8
20260830152214 81 238 3.0 7.0 0.00 0.00 0.00 80 1049.8
20260830151445 81 163 4.0 8.0 0.00 0.00 0.00 78 1049.8
20260830150936 80 142 3.0 8.0 0.00 0.00 0.00 80 1049.8
20260830150433 80 136 4.0 8.0 0.00 0.00 0.00 81 1049.8
20260830145928 80 242 4.0 8.0 0.00 0.00 0.00 80 1049.8
20260830145644 80 154 3.0 9.0 0.00 0.00 0.00 82 1049.8
20260830144916 80 202 3.0 9.0 0.00 0.00 0.00 81 1049.8
20260830144409 80 208 3.0 7.0 0.00 0.00 0.00 82 1049.8
20260830143903 80 153 3.0 7.0 0.00 0.00 0.00 82 1049.8
20260830143353 80 138 3.0 9.0 0.00 0.00 0.00 82 1049.8
20260830142851 80 156 3.0 9.0 0.00 0.00 0.00 82 1049.8
20260830142603 80 210 3.0 8.0 0.00 0.00 0.00 84 1049.8
20260830142108 79 150 3.0 8.0 0.00 0.00 0.00 84 1049.8
20260830141556 78 223 2.0 12.0 0.00 0.00 0.00 84 1049.8
20260830140827 78 252 2.0 12.0 0.00 0.00 0.00 85 1049.8
20260830140809 78 254 4.0 12.0 0.00 0.00 0.00 84 1049.8
20260830135811 78 212 4.0 12.0 0.00 0.00 0.00 83 1049.8
20260830135310 78 325 3.0 9.0 0.00 0.00 0.00 84 1049.8
20260830134803 78 244 3.0 8.0 0.00 0.00 0.00 85 1049.8
20260830134257 78 167 4.0 8.0 0.00 0.00 0.00 85 1049.8
20260830133751 77 246 2.0 8.0 0.00 0.00 0.00 86 1050.0
20260830133505 77 152 3.0 7.0 0.00 0.00 0.00 87 1050.0
20260830132739 76 169 3.0 8.0 0.00 0.00 0.00 88 1050.0
20260830132229 76 152 2.0 8.0 0.00 0.00 0.00 88 1050.3
20260830131952 74 205 1.0 7.0 0.00 0.00 0.00 91 1050.3
20260830131443 73 148 1.0 7.0 0.00 0.00 0.00 92 1050.3
20260830130715 72 190 1.0 3.0 0.00 0.00 0.00 94 1050.4
20260830130209 71 146 0.0 3.0 0.00 0.00 0.00 96 1050.4
20260830125703 70 197 0.0 0.0 0.00 0.00 0.00 98 1050.4
20260830125157 69 165 0.0 0.0 0.00 0.00 0.00 99 1050.5
20260830124653 68 158 0.0 1.0 0.00 0.00 0.00 99 1050.5
20260830124151 68 155 0.0 1.0 0.00 0.00 0.00 99 1050.5
20260830123910 67 101 0.0 0.0 0.00 0.00 0.00 99 1050.5
20260830123151 67 101 0.0 0.0 0.00 0.00 0.00 99 1050.5
20260830122921 67 101 0.0 0.0 0.00 0.00 0.00 99 1050.5
20260830122147 66 101 0.0 0.0 0.00 0.00 0.00 99 1050.6
20260830121645 65 101 0.0 0.0 0.00 0.00 0.00 99 1050.6
20260830121143 64 101 0.0 0.0 0.00 0.00 0.00 99 1050.6
20260830121125 64 101 0.0 0.0 0.00 0.00 0.00 99 1050.8
20260830120138 63 101 0.0 0.0 0.00 0.00 0.00 99 1050.8
20260830115637 63 101 0.0 0.0 0.00 0.00 0.00 99 1050.8
20260830115135 62 101 0.0 0.0 0.00 0.00 0.00 99 1050.4
20260830114632 62 101 0.0 0.0 0.00 0.00 0.00 99 1050.4
20260830114130 61 101 0.0 0.0 0.00 0.00 0.00 99 1050.4
20260830113629 61 101 0.0 0.0 0.00 0.00 0.00 99 1050.4
20260830113355 60 101 0.0 0.0 0.00 0.00 0.00 99 1050.4
20260830112629 60 101 0.0 0.0 0.00 0.00 0.00 99 1050.4
20260830112127 60 101 0.0 0.0 0.00 0.00 0.00 99 1050.4
20260830111629 59 101 0.0 0.0 0.00 0.00 0.00 99 1050.4
20260830111352 59 101 0.0 0.0 0.00 0.00 0.00 99 1050.4
20260830110623 59 101 0.0 0.0 0.00 0.00 0.00 99 1050.3
20260830110111 59 101 0.0 0.0 0.00 0.00 0.00 99 1050.3
20260830105610 59 101 0.0 0.0 0.00 0.00 0.00 98 1050.3
20260830105111 59 101 0.0 0.0 0.00 0.00 0.00 98 1050.3
20260830104610 59 101 0.0 0.0 0.00 0.00 0.00 98 1050.3
20260830104111 59 101 0.0 0.0 0.00 0.00 0.00 98 1050.3
20260830103611 59 101 0.0 0.0 0.00 0.00 0.00 98 1050.2
20260830103110 59 101 0.0 0.0 0.00 0.00 0.00 98 1050.2
20260830102613 59 101 0.0 0.0 0.00 0.00 0.00 98 1050.2
20260830102339 59 101 0.0 0.0 0.00 0.00 0.00 98 1050.3
20260830101607 59 101 0.0 0.0 0.00 0.00 0.00 98 1050.3
20260830101055 59 101 0.0 0.0 0.00 0.00 0.00 98 1050.3
20260830100554 60 101 0.0 0.0 0.00 0.00 0.00 98 1050.4
20260830100318 60 101 0.0 0.0 0.00 0.00 0.00 98 1050.4
20260830095816 60 101 0.0 0.0 0.00 0.00 0.00 98 1050.4
20260830095319 60 101 0.0 0.0 0.00 0.00 0.00 98 1050.3
20260830094554 60 101 0.0 0.0 0.00 0.00 0.00 98 1050.3
20260830094054 60 101 0.0 0.0 0.00 0.00 0.00 98 1050.3
20260830093823 60 101 0.0 0.0 0.00 0.00 0.00 98 1050.5
20260830093054 60 101 0.0 0.0 0.00 0.00 0.00 98 1050.5
20260830092548 60 101 0.0 0.0 0.00 0.00 0.00 98 1050.5
20260830092036 60 101 0.0 0.0 0.00 0.00 0.00 98 1050.5
20260830091526 60 101 0.0 0.0 0.00 0.00 0.00 98 1050.5
20260830091015 60 101 0.0 0.0 0.00 0.00 0.00 98 1050.5
20260830090742 60 101 0.0 0.0 0.00 0.00 0.00 97 1050.6
20260830090004 60 101 0.0 0.0 0.00 0.00 0.00 97 1050.6
20260830085502 60 101 0.0 0.0 0.00 0.00 0.00 97 1050.6
20260830084956 60 101 0.0 0.0 0.00 0.00 0.00 97 1050.6
20260830084450 60 101 0.0 0.0 0.00 0.00 0.00 98 1050.6
20260830083944 60 101 0.0 0.0 0.00 0.00 0.00 98 1050.6
20260830083434 60 101 0.0 0.0 0.00 0.00 0.00 97 1050.5
20260830082932 61 101 0.0 0.0 0.00 0.00 0.00 97 1050.5
20260830082426 61 101 0.0 0.0 0.00 0.00 0.00 97 1050.5
20260830081920 61 101 0.0 0.0 0.00 0.00 0.00 97 1050.6
20260830081415 61 101 0.0 0.0 0.00 0.00 0.00 97 1050.6
20260830080909 61 101 0.0 0.0 0.00 0.00 0.00 97 1050.6
20260830080621 61 101 0.0 0.0 0.00 0.00 0.00 97 1050.7
20260830080116 61 101 0.0 0.0 0.00 0.00 0.00 97 1050.7
20260830075351 61 101 0.0 0.0 0.00 0.00 0.00 97 1050.7
20260830075114 62 101 0.0 0.0 0.00 0.00 0.00 97 1050.7
20260830074600 62 101 0.0 0.0 0.00 0.00 0.00 97 1050.7
20260830073832 62 101 0.0 0.0 0.00 0.00 0.00 97 1050.8
20260830073549 62 101 0.0 0.0 0.00 0.00 0.00 97 1050.8
20260830073039 62 101 0.0 0.0 0.00 0.00 0.00 96 1050.8
20260830072528 62 101 0.0 0.0 0.00 0.00 0.00 97 1050.8
20260830071808 62 101 0.0 0.0 0.00 0.00 0.00 96 1050.8
20260830071302 62 101 0.0 0.0 0.00 0.00 0.00 96 1050.8
20260830070756 62 101 0.0 0.0 0.00 0.00 0.00 96 1050.7
20260830070250 62 101 0.0 0.0 0.00 0.00 0.00 96 1050.7
20260830065744 62 101 0.0 0.0 0.00 0.00 0.00 96 1050.7
20260830065238 63 101 0.0 0.0 0.00 0.00 0.00 96 1050.6
20260830064727 63 101 0.0 0.0 0.00 0.00 0.00 96 1050.6
20260830064226 63 101 0.0 0.0 0.00 0.00 0.00 96 1050.6
20260830063721 63 101 0.0 0.0 0.00 0.00 0.00 96 1050.9
20260830063214 63 101 0.0 0.0 0.00 0.00 0.00 96 1050.9
20260830062708 63 101 0.0 0.0 0.00 0.00 0.00 95 1050.9
20260830062202 63 101 0.0 0.0 0.00 0.00 0.00 96 1051.2
20260830061656 63 101 0.0 0.0 0.00 0.00 0.00 96 1051.2
20260830061146 63 101 0.0 0.0 0.00 0.00 0.00 95 1051.2
20260830060906 63 101 0.0 0.0 0.00 0.00 0.00 96 1051.3
20260830060138 63 101 0.0 0.0 0.00 0.00 0.00 95 1051.3
20260830055632 63 101 0.0 0.0 0.00 0.00 0.00 95 1051.3
20260830055126 63 101 0.0 0.0 0.00 0.00 0.00 95 1051.3
20260830054620 63 101 0.0 0.0 0.00 0.00 0.00 95 1051.3
20260830054114 64 101 0.0 0.0 0.00 0.00 0.00 95 1051.3
20260830053603 64 101 0.0 0.0 0.00 0.00 0.00 95 1051.2
20260830053102 64 101 0.0 0.0 0.00 0.00 0.00 95 1051.2
20260830052555 64 101 0.0 0.0 0.00 0.00 0.00 95 1051.2
20260830052311 64 101 0.0 0.0 0.00 0.00 0.00 95 1051.3
20260830051544 64 101 0.0 0.0 0.00 0.00 0.00 95 1051.3
20260830051037 64 101 0.0 0.0 0.00 0.00 0.00 96 1051.3
20260830050532 63 101 0.0 0.0 0.00 0.00 0.00 96 1051.3
20260830050022 63 101 0.0 0.0 0.00 0.00 0.00 96 1051.3
20260830045519 63 101 0.0 0.0 0.00 0.00 0.00 96 1051.3
20260830045013 62 101 0.0 0.0 0.00 0.00 0.00 96 1051.3
20260830044727 62 101 0.0 0.0 0.00 0.00 0.00 96 1051.3
20260830044225 62 101 0.0 0.0 0.00 0.00 0.00 96 1051.3
20260830043718 62 101 0.0 0.0 0.00 0.00 0.00 95 1050.9
20260830042950 62 101 0.0 0.0 0.00 0.00 0.00 95 1050.9
20260830042657 62 101 0.0 0.0 0.00 0.00 0.00 95 1050.9
20260830041930 62 101 0.0 0.0 0.00 0.00 0.00 95 1051.0
20260830041649 62 101 0.0 0.0 0.00 0.00 0.00 95 1051.0
20260830040922 62 101 0.0 0.0 0.00 0.00 0.00 95 1051.0
20260830040416 62 101 0.0 0.0 0.00 0.00 0.00 95 1050.9
20260830040129 62 101 0.0 0.0 0.00 0.00 0.00 94 1050.9
20260830035400 63 101 0.0 0.0 0.00 0.00 0.00 94 1050.9
20260830035119 62 101 0.0 0.0 0.00 0.00 0.00 94 1050.9
20260830034352 63 101 0.0 0.0 0.00 0.00 0.00 94 1050.9
20260830033846 63 101 0.0 0.0 0.00 0.00 0.00 94 1050.9
20260830033606 63 101 0.0 0.0 0.00 0.00 0.00 94 1050.9
20260830032834 63 101 0.0 0.0 0.00 0.00 0.00 94 1050.9
20260830032811 63 101 0.0 0.0 0.00 0.00 0.00 94 1051.2
20260830032042 63 101 0.0 0.0 0.00 0.00 0.00 94 1051.2
20260830031321 63 101 0.0 0.0 0.00 0.00 0.00 94 1051.2
20260830030819 63 101 0.0 0.0 0.00 0.00 0.00 94 1051.2
20260830030318 63 101 0.0 0.0 0.00 0.00 0.00 94 1051.2
20260830030044 63 101 0.0 0.0 0.00 0.00 0.00 94 1051.2
20260830025314 63 101 0.0 0.0 0.00 0.00 0.00 94 1051.2
20260830024812 63 101 0.0 0.0 0.00 0.00 0.00 94 1051.2
20260830024309 63 101 0.0 0.0 0.00 0.00 0.00 94 1051.2
20260830023809 63 101 0.0 0.0 0.00 0.00 0.00 94 1051.3
20260830023312 63 101 0.0 0.0 0.00 0.00 0.00 94 1051.3
20260830022811 63 101 0.0 0.0 0.00 0.00 0.00 94 1051.3